Location: Unspecified
(0.0000°N, 0.0000°E)
Time: 00:31:24
(UTC+02:00)

Meteor PRIRODA - Visible Passes

Search period start: 29 July 2014 00:00
Search period end: 08 August 2014 00:00
Orbit: 510 x 536 km, 97.3° (Epoch: 27 July)

Date Brightness Start Highest point End Pass type
(mag) Time Alt. Az. Time Alt. Az. Time Alt. Az.
29 Jul 6.7 06:00:38 10° ENE 06:02:27 13° ESE 06:04:16 10° SE visible
29 Jul 5.3 07:33:53 10° NW 07:36:23 17° W 07:38:55 10° WSW visible
30 Jul 4.7 07:20:38 10° NNW 07:23:48 27° W 07:27:01 10° SW visible
31 Jul 4.1 07:07:40 10° N 07:11:13 43° W 07:14:41 11° SSW visible
01 Aug 3.6 06:54:54 10° N 06:58:37 72° W 07:01:58 13° SSW visible
02 Aug 3.9 06:42:18 10° NNE 06:46:02 69° E 06:49:14 14° S visible
03 Aug 4.9 06:29:53 10° NNE 06:33:26 41° E 06:36:31 13° S visible
04 Aug 5.8 06:17:41 10° NE 06:20:50 26° ESE 06:23:47 11° SSE visible
05 Aug 6.5 06:05:47 10° ENE 06:08:15 17° ESE 06:10:44 10° SE visible
05 Aug 5.5 07:40:13 10° NW 07:42:12 14° W 07:44:12 10° WSW visible
06 Aug 6.9 05:54:47 10° E 05:55:39 11° ESE 05:56:32 10° ESE visible
06 Aug 5.0 07:26:40 10° NNW 07:29:35 22° W 07:32:32 10° SW visible
07 Aug 4.4 07:13:33 10° NNW 07:16:58 34° W 07:20:26 10° SW visible
